{"data":{"norad_id":59291,"epoch":"2026-05-25T04:35:34.559808Z","epoch_age_seconds":61975,"freshness":"FRESH","line1":"1 59291U 24053D   26145.19137222  .00014728  00000+0  33652-3 0  9998","line2":"2 59291  49.9906  81.8093 0001963 233.1252 126.9531 15.43019122117634","mean_motion":15.43019122,"eccentricity":0.0001963,"inclination_deg":49.9906,"raan_deg":81.8093,"arg_perigee_deg":233.1252,"mean_anomaly_deg":126.9531,"bstar":0.00033652,"rev_number":11763,"period_min":93.323535623689,"perigee_km":435.86686434525,"apogee_km":438.54256750292,"semimajor_km":6815.3417159241,"source":"CELESTRAK","updated_at":"2026-05-25T13:38:01.314543Z"}}